Regional Weather Roundup
Issued by NWS

Home | Current Version | Previous Version | Text Only | Print | Product List | Glossary Off
Versions: 1 2 3 4 5 6 7 8 9 10 11 12 13 14 15 16 17 18 19 20 21 22 23 24 25 26 27

000
ASUS45 KTFX 252110
RWRMT
MONTANA REGIONAL WEATHER ROUNDUP
NATIONAL WEATHER SERVICE GREAT FALLS MT
300 PM MDT WED MAY 25 2016

NOTE: "FAIR" INDICATES FEW OR NO CLOUDS BELOW 12000 FEET WITH NO
SIGNIFICANT WEATHER AND/OR OBSTRUCTIONS TO VISIBILITY.

MTZ001>007-043-252200-
WEST OF THE DIVIDE

CITY           SKY/WX    TMP DP  RH WIND       PRES   REMARKS
KALISPELL      MOSUNNY   65  46  50 S10G16    29.94F
MISSOULA       CLOUDY    63  43  48 N7        29.98F
BUTTE          MOSUNNY   58  29  33 W17G23    30.00F
MULLAN PASS    PTSUNNY   49  42  77 VRB6      30.07S
ANACONDA         N/A     57  32  38 W6        29.98F
DEER LODGE       N/A     57  37  47 W9        29.98F
EUREKA           N/A     66  46  48 W12       29.91S
HAMILTON         N/A     63  36  36 SW6       29.99F
LIBBY            N/A     68  43  40 W5        29.94S
$$

MTZ008-052>055-252200-
SOUTHWEST MONTANA

CITY           SKY/WX    TMP DP  RH WIND       PRES   REMARKS
BOZEMAN        MOSUNNY   63  35  35 VRB3      29.94F
DILLON         MOSUNNY   60  33  36 MISG      29.97S
ENNIS          SUNNY     61  30  31 NW9G16    30.01F
$$

MTZ009-010-012-014-046-048-049-054-252200-
EAST SLOPES AND CENTRAL MONTANA

CITY           SKY/WX    TMP DP  RH WIND       PRES   REMARKS
CUT BANK       MOSUNNY   67  41  38 N21G28    29.86R
GREAT FALLS    LGT RAIN  58  45  62 N10       29.87R
MALMSTROM AFB  PTSUNNY   58  44  59 N5        29.86S
HELENA         MOSUNNY   65  38  36 W18G29    29.91F
CHOTEAU          N/A     63  45  51 N15G22    29.88F
$$

MTZ011-013-016-021-045-047-050-051-252200-
NORTH CENTRAL MONTANA

CITY           SKY/WX    TMP DP  RH WIND       PRES   REMARKS
HAVRE            N/A    N/A N/A N/A MISG      29.85R THUNDER
LEWISTOWN      CLOUDY    63  39  41 VRB5      29.88S
N BAR RANCH    PTSUNNY   57  39  51 NE13      29.91S
CHINOOK          N/A     63  41  45 E13       29.83S
$$

MTZ017>020-022>027-061-062-252200-
NORTHEAST MONTANA

CITY           SKY/WX    TMP DP  RH WIND       PRES   REMARKS
GLASGOW        CLOUDY    63  46  54 N13       29.85R
JORDAN           N/A     68  43  40 N12G18    29.83F
SIDNEY         CLOUDY    61  46  59 NW10      29.85S
WOLF POINT     CLOUDY    63  47  55 NE6       29.85F
PLENTYWOOD       N/A     55  48  76 N13       29.84F
POPLAR           N/A     59  45  58 N5        29.86F
$$

MTZ028>42-056>058-252200-
SOUTHCENTRAL AND SOUTHEAST MONTANA

CITY           SKY/WX    TMP DP  RH WIND       PRES   REMARKS
BAKER          CLOUDY    61  43  51 NW13      29.87F
BILLINGS       MOSUNNY   66  39  37 VRB6      29.88F
LIVINGSTON     PTSUNNY   65  31  28 W21       29.92S
MILES CITY     SUNNY     65  48  54 VRB3      29.84F
FORSYTH          N/A     63  46  55 S9        29.85F
$$

REGIONAL REPORTS...DAKOTAS

CITY           SKY/WX    TMP DP  RH WIND       PRES   REMARKS
WILLISTON      CLOUDY    56  49  77 NW15      29.83F
MINOT          CLOUDY    66  58  75 E8        29.76S
DICKINSON      CLOUDY    56  47  71 NW22      29.81R
BEACH            N/A     57  45  62 NW17      29.89F
CROSBY         LGT RAIN  54  54 100 NW12      29.83F
WATFORD CITY   CLOUDY    54  50  87 NW18      29.82F
BISMARCK       MOSUNNY   69  56  62 SE6       29.74F
GRAND FORKS    HVY RAIN  62  59  90 NE13      29.72F FOG
FARGO          CLOUDY    68  63  84 S10       29.68S
BUFFALO SD       N/A     65  46  50 NW17G25   29.80S
RAPID CITY     MOSUNNY   63  53  70 N16       29.87R
$$

REGIONAL REPORTS...WYOMING/IDAHO/WASHINGTON

CITY           SKY/WX    TMP DP  RH WIND       PRES   REMARKS
GILLETTE       MOSUNNY   62  40  44 SW8       29.91F
SHERIDAN       CLOUDY    55  47  74 SW9       29.94S
BUFFALO WY       N/A    N/A N/A N/A MISG      29.96R
CODY           CLOUDY    57  43  58 NE5       29.92F
YELLOWSTONE LA   N/A     38  34  85 NW7G20    30.09R
IDAHO FALLS    CLOUDY    57  42  57 VRB3      30.02S
SALMON         MOSUNNY   63  36  36 N5        29.97F
BOISE          PTSUNNY   70  37  29 NW14G23   29.98F
SPOKANE        PTSUNNY   69  43  38 SW16      30.00F
$$

REGIONAL REPORTS...ALBERTA

CITY           SKY/WX    TMP DP  RH WIND       PRES   REMARKS
EDMONTON       MOSUNNY   72  46  40 SE6       29.82F
CALGARY        PTSUNNY   68  43  40 SE8       29.85F
LETHBRIDGE     MOSUNNY   64  41  42 VRB6      29.87S
MEDICINE HAT   PTSUNNY   63  45  51 N8        29.86S
WATERTON GATE    N/A     59  46  63 SW13G20     N/A
CARDSTON         N/A     66  41  39 N12G18      N/A
MILK RIVER       N/A     64  41  42 NE10        N/A
ONEFOUR          N/A     61  46  59 E10         N/A
$$

REGIONAL REPORTS...SASKATCHEWAN

CITY           SKY/WX    TMP DP  RH WIND       PRES   REMARKS
SWIFT CURRENT  CLOUDY    59  48  67 NE6       29.85F
REGINA         LGT RAIN  55  50  82 NW13      29.87S
SASKATOON      PTSUNNY   64  48  55 NE6       29.88F
CYPRESS HILLS    N/A     55  39  54 NE8         N/A
VAL MARIE        N/A     63  39  42 S2          N/A
ROCKGLEN         N/A     57  45  62 N3          N/A
ASSINIBOIA       N/A     70  43  37 S5          N/A
$$




USA.gov is the U.S. government's official web portal to all federal, state and local government web resources and services.